Tracking 31030 objects as of 16-Jul-2025
HD Live streaming from Space Station
objects crossing your sky now

CZ-6A DEB

Track CZ-6A DEB now!
10-day predictions


NORAD ID: 54966
Int'l Code: 2022-151TF
Perigee: 545.0 km
Apogee: 746.8 km
Inclination: 98.7 °
Period: 97.5 minutes
Semi major axis: 7016 km
RCS: Unknown
Launch date: November 11, 2022
Source: People's Republic of China (PRC)
Launch site: Taiyaun Space Center, China (TSC)

Note: This is SATELLITE DEBRIS
Your satellite tracking list
Your tracking list is empty




NASA's NSSDC Master Catalog

Two Line Element Set (TLE):
1 54966U 22151TF  25196.77830676  .00009172  00000-0  11034-2 0  9998
2 54966  98.7248 283.6348 0143799 128.3373 233.0862 14.77001559142846
Source of the keplerian elements: AFSPC